Theta_e
311 311 311 311 310 310 310 309 309 308 307 302 299 301 292 291 288 298 301 302 299 290 284 290 289 288 291 294 293 295 294 293 294 292 293 291 293 292 291 291 290 292 291 292 291 291 291 292 291 294 293 291 293 295 296 297 299 303 299 302 304 308 295 292 292 292 295 297 297 298 299 299 298 298 299 297 295 296 295 294 289 289 288 290 288 288 289
311 311 311 310 311 310 310 309 309 308 307 302 302 295 292 292 291 293 300 302 298 289 283 284 286 289 291 291 290 294 293 292 291 291 292 291 291 289 290 291 293 290 293 292 290 293 287 292 291 290 293 292 296 295 295 297 297 300 299 298 300 293 293 290 285 287 290 292 294 294 296 298 295 295 298 298 298 297 297 294 290 291 289 291 287 287 290
311 311 310 310 310 310 309 309 309 309 309 306 300 293 294 292 293 292 296 301 296 288 290 287 287 287 287 288 286 289 290 293 293 293 292 294 292 290 289 292 292 291 293 291 292 293 291 289 292 291 293 292 297 295 295 296 297 302 305 307 303 297 294 290 285 285 283 283 284 285 288 292 292 295 297 299 298 296 294 292 291 289 290 291 288 288 287
311 311 310 310 310 310 309 309 309 309 309 306 299 297 293 288 282 290 290 293 292 293 295 292 289 287 286 285 285 289 287 291 295 294 293 294 293 292 292 292 293 290 291 289 289 289 292 289 289 289 290 291 294 294 294 295 298 305 307 306 301 296 296 294 291 289 287 288 290 293 298 294 291 294 296 296 298 299 298 296 291 290 287 290 291 293 292
311 310 310 310 310 309 309 309 309 309 308 307 299 298 294 293 285 286 284 291 290 289 290 289 290 286 289 281 285 284 287 289 291 296 290 293 292 292 291 290 288 288 288 288 287 290 288 290 290 289 288 291 293 295 294 294 301 306 301 303 299 293 289 293 293 293 294 295 294 296 297 294 295 294 295 296 297 298 297 294 293 294 290 290 294 293 294
310 311 310 310 310 309 309 308 309 309 308 307 300 291 293 284 288 291 293 286 282 285 285 289 288 290 289 285 289 286 286 286 285 291 292 293 295 289 291 291 290 289 288 289 284 287 286 288 286 289 289 290 292 291 294 294 299 300 295 299 295 291 289 292 295 293 294 295 295 296 296 296 296 297 296 296 296 297 296 296 295 296 295 293 295 294 295
310 310 311 310 309 309 309 308 308 308 307 306 300 291 294 292 291 291 296 285 288 287 288 290 289 288 288 287 288 286 286 284 287 288 288 289 290 292 285 287 289 289 290 289 286 286 282 283 288 287 288 288 288 287 290 294 295 295 293 294 296 294 288 291 293 291 292 294 295 296 295 295 295 295 296 297 297 296 297 297 298 297 297 297 298 295 297
310 310 310 310 310 309 309 308 309 308 306 306 299 296 290 287 287 285 292 291 289 289 289 289 288 285 289 284 286 287 286 285 287 289 288 285 287 292 287 288 289 290 290 289 285 287 289 288 285 290 288 288 289 288 290 289 293 294 291 293 293 292 289 296 292 290 290 293 296 295 295 294 293 295 296 297 297 297 298 298 298 298 297 297 296 296 296
310 310 310 310 310 309 309 308 308 307 306 299 297 296 296 293 294 295 289 286 288 290 289 287 286 284 286 285 286 287 286 285 288 287 291 287 286 288 287 289 289 290 290 289 288 290 290 290 290 291 290 285 291 288 289 292 288 291 291 293 294 293 287 292 290 286 287 292 293 294 294 294 294 294 296 296 295 294 296 296 297 296 295 296 296 295 295
310 310 311 311 309 309 309 308 308 307 306 300 299 293 299 297 300 298 293 285 290 286 287 287 286 282 286 287 287 286 286 288 289 285 290 290 291 291 290 290 289 288 288 287 289 292 292 293 294 294 294 295 294 294 294 293 290 289 290 293 290 290 290 287 288 285 284 291 292 292 292 293 292 294 297 298 297 297 297 297 300 301 300 297 295 296 300
310 310 310 310 310 310 309 309 308 308 303 299 297 296 297 295 293 295 293 285 287 287 286 285 285 287 288 288 286 288 287 288 289 284 285 291 290 293 292 290 287 286 286 290 295 296 296 296 296 296 295 295 294 294 294 295 295 293 291 292 292 292 291 288 290 283 285 290 291 292 289 284 288 298 300 300 298 298 296 297 297 298 300 300 302 302 303
310 310 310 310 310 310 309 309 308 307 304 301 302 299 300 301 298 295 290 284 285 288 285 283 284 287 286 288 288 287 286 287 288 291 287 288 290 292 292 291 290 284 291 296 297 297 297 297 296 295 295 294 293 293 293 292 293 297 295 291 290 291 293 289 289 286 284 288 290 287 283 286 298 299 304 308 307 301 299 300 299 299 299 300 299 299 300
311 310 310 310 310 309 309 309 308 308 306 303 303 298 302 304 297 294 292 287 284 286 284 285 289 288 289 288 287 288 289 290 291 291 290 289 288 291 292 291 290 291 297 295 296 294 290 288 290 291 291 293 292 292 292 292 292 294 295 295 291 288 288 288 289 287 288 286 285 281 283 293 297 298 306 311 306 307 302 298 299 300 299 299 299 300 301
311 310 310 310 310 310 310 309 309 308 307 306 302 301 303 302 296 294 292 287 286 289 289 287 287 286 287 287 287 288 289 288 289 290 287 291 290 290 292 295 295 298 297 297 293 291 287 286 282 284 284 287 286 286 289 292 292 292 293 293 294 292 290 290 285 290 282 284 284 286 293 292 295 301 304 305 302 303 302 296 299 300 303 299 299 300 300
310 311 310 310 310 309 310 309 309 308 308 306 304 303 302 302 301 297 297 292 285 288 290 283 285 286 288 288 289 287 286 287 286 286 290 292 290 292 293 296 298 297 297 293 288 289 287 285 281 279 281 279 274 278 289 286 291 293 294 294 294 294 289 290 285 285 289 283 282 283 284 283 289 302 308 310 311 310 308 303 299 304 306 305 301 300 301
311 311 311 310 310 310 309 309 309 309 308 306 304 302 303 304 303 301 296 292 289 282 287 291 291 290 288 288 289 287 285 285 286 287 287 287 289 293 295 297 297 298 296 296 292 289 286 283 281 280 276 277 283 283 280 286 288 292 293 294 293 294 294 292 288 287 288 285 281 281 282 287 293 301 307 309 311 311 310 301 296 301 307 311 305 301 301
311 311 311 311 310 310 309 309 309 308 308 306 301 301 300 305 302 300 296 294 291 285 292 293 292 291 289 287 288 286 288 285 287 284 283 284 287 290 292 296 297 296 295 292 290 288 285 283 285 281 283 286 281 278 285 286 284 289 292 292 291 290 290 290 288 286 288 286 284 282 288 290 299 306 308 310 312 312 303 292 291 302 309 311 312 308 303
311 311 311 311 311 310 310 309 309 309 307 307 304 301 301 303 302 301 298 294 289 289 292 294 291 287 287 288 286 290 291 290 289 290 287 288 288 288 291 292 290 295 298 288 290 284 283 282 279 281 280 289 289 288 278 284 284 287 288 287 286 287 288 289 285 287 288 290 285 287 290 298 306 307 310 312 313 303 294 290 293 307 309 312 312 314 314
310 311 311 311 310 310 310 310 310 309 308 307 304 303 302 303 303 301 298 294 292 286 293 298 296 292 294 295 292 292 292 291 289 286 286 286 287 293 292 291 293 287 293 288 290 285 283 283 289 283 282 286 287 281 289 285 283 290 292 290 288 287 288 290 290 287 286 287 285 286 291 297 307 311 311 313 307 294 292 302 310 310 311 312 313 316 317
311 311 311 311 311 310 310 310 310 309 309 307 304 300 300 300 303 302 297 292 294 290 293 294 295 292 295 292 289 288 288 289 289 287 286 283 291 291 288 283 290 291 288 290 284 288 284 281 283 288 285 285 286 292 286 287 291 287 288 291 290 291 287 286 287 290 292 292 288 287 283 295 311 310 309 311 302 301 309 310 312 313 312 315 319 322 321
311 311 311 311 311 311 310 310 310 309 309 308 306 301 299 301 301 302 302 298 293 289 290 297 297 295 295 294 294 294 291 288 288 286 289 289 291 289 280 281 284 286 283 286 278 281 286 283 285 284 288 287 288 289 282 285 287 292 291 291 292 297 290 291 293 295 288 290 287 287 295 303 311 308 301 308 311 313 313 312 309 313 313 313 313 322 325
311 312 311 311 311 311 311 310 310 309 309 308 306 303 299 302 301 302 303 301 295 292 293 297 299 297 298 299 298 298 296 295 295 295 291 289 292 290 290 290 288 288 290 292 286 286 290 289 290 286 284 286 290 285 288 283 280 287 297 297 286 301 295 299 291 300 297 294 297 303 308 311 313 312 311 313 315 316 315 314 312 312 313 315 314 318 324
312 311 312 312 311 311 311 311 311 310 309 309 306 302 299 299 298 304 303 296 299 299 301 298 298 298 300 301 302 302 300 301 299 297 297 292 289 291 289 289 288 292 292 291 287 287 288 289 286 290 287 288 286 285 288 286 283 288 285 297 295 299 299 301 299 297 305 307 310 311 312 311 312 315 316 314 314 315 315 314 312 314 315 316 315 316 323
312 312 312 312 312 312 311 311 311 310 310 310 307 302 300 301 301 302 300 299 295 291 293 295 291 289 292 292 297 301 303 302 301 300 301 298 289 289 292 293 295 293 291 294 297 291 291 292 290 292 284 290 292 284 281 282 285 289 289 289 293 297 300 300 295 299 297 293 309 309 309 312 312 312 314 315 315 315 316 314 314 314 315 316 318 317 322
312 312 312 312 312 312 312 312 311 311 311 310 309 308 306 302 303 302 297 290 291 290 284 288 290 295 297 299 300 298 300 303 306 303 301 299 296 291 290 295 297 292 290 293 300 298 296 289 290 289 284 293 291 283 291 286 285 294 284 287 289 289 302 293 294 295 294 297 307 310 312 312 313 312 312 313 314 316 317 317 316 315 316 317 318 319 321
312 312 312 313 312 312 312 312 311 311 311 310 309 303 301 301 302 303 301 299 298 293 286 285 289 298 299 297 296 298 300 301 301 302 302 300 299 297 296 296 296 298 296 299 298 293 292 291 291 290 286 287 295 287 286 291 290 293 288 287 292 293 297 288 293 292 298 304 309 311 311 311 312 314 314 315 316 316 316 316 316 315 314 315 317 319 319
311 311 312 312 312 312 312 311 311 311 311 310 308 305 303 302 303 301 298 297 291 287 289 285 290 294 297 294 299 300 301 300 300 298 299 301 300 299 297 295 294 295 295 294 295 294 292 291 290 287 290 290 295 291 292 290 288 287 287 291 295 294 289 294 294 289 290 295 304 310 301 300 308 313 314 315 317 315 314 314 314 314 313 314 315 318 320
311 311 312 312 312 312 312 311 311 311 310 310 309 306 305 303 303 303 303 301 294 286 287 287 287 290 297 294 299 300 300 302 299 298 297 297 299 299 297 296 295 293 293 292 289 290 290 288 287 292 293 296 293 290 296 295 293 288 288 290 295 293 295 296 293 293 294 304 309 311 308 308 310 312 314 315 317 317 313 312 312 313 313 313 313 315 318
312 312 312 312 312 312 312 311 311 311 310 308 306 304 303 304 305 305 305 305 301 295 292 291 294 292 287 292 299 297 299 299 298 298 297 297 297 297 296 296 294 294 294 293 291 290 289 290 293 292 292 299 294 288 290 285 285 285 289 296 299 300 302 301 300 301 302 304 305 312 309 306 310 314 314 314 316 316 313 314 315 313 313 314 314 314 316
311 312 312 312 312 312 312 312 311 310 310 307 304 300 295 298 302 303 306 305 303 299 291 288 285 290 297 296 295 298 298 299 297 297 296 295 295 295 296 295 295 297 295 293 291 288 290 291 293 295 299 302 294 290 287 288 286 289 296 299 301 302 303 302 302 301 300 307 311 313 312 312 313 314 315 316 317 315 312 313 314 315 315 316 314 314 316
311 311 311 311 311 311 311 311 311 310 308 304 300 293 290 287 296 306 306 305 305 299 294 293 288 294 291 295 295 294 296 298 297 296 296 296 296 296 297 297 296 297 292 292 291 291 293 290 292 296 300 301 297 290 287 287 286 289 295 299 300 300 301 301 305 308 309 310 311 314 314 313 313 313 313 313 314 314 313 313 315 318 318 317 315 314 315
311 311 311 310 310 311 311 310 310 310 307 303 298 295 296 297 302 307 307 306 304 298 293 287 287 286 286 292 296 300 298 299 300 301 300 303 296 297 296 296 293 296 296 291 292 291 291 293 291 293 294 300 299 293 292 289 287 288 296 299 301 302 303 303 305 308 311 312 311 311 310 310 312 310 308 313 313 314 313 313 315 315 318 317 318 316 317
311 310 310 310 310 310 310 310 310 309 306 306 308 308 307 307 308 308 307 306 301 298 298 290 285 288 286 288 296 298 300 300 299 299 296 301 298 297 294 296 296 294 301 295 290 288 293 294 295 292 295 303 296 294 292 290 291 297 299 302 302 304 306 307 308 309 309 311 312 307 306 307 310 312 313 313 313 313 313 313 315 316 316 316 316 316 315
310 310 310 310 310 310 310 310 310 309 308 305 300 302 306 308 308 308 308 305 300 300 298 290 286 286 287 296 291 297 305 295 293 296 291 299 301 296 292 294 294 291 293 292 292 294 296 299 295 295 298 295 297 294 289 293 298 299 301 304 305 306 306 306 307 309 311 313 314 313 311 312 312 312 312 311 311 313 314 313 314 314 314 314 314 315 315
310 309 309 310 310 311 310 309 306 305 301 301 301 304 308 309 308 308 307 302 293 291 290 291 291 285 286 288 287 292 303 297 292 295 293 295 303 296 296 291 292 288 291 299 291 291 291 294 298 292 290 298 295 290 291 294 298 301 302 301 303 306 307 306 307 310 311 312 313 312 312 311 310 309 309 310 310 311 312 313 313 313 312 312 313 314 314
309 310 310 310 309 309 307 307 305 302 299 299 301 309 311 311 310 308 307 306 300 290 287 288 290 286 288 283 284 293 303 296 297 298 296 297 296 300 299 293 286 291 298 294 289 294 293 301 296 289 295 291 289 292 294 298 298 299 300 300 303 306 306 306 307 310 310 311 312 311 310 309 308 308 309 310 311 311 312 312 312 312 312 311 312 312 314
309 310 310 309 307 304 299 300 305 303 301 304 308 312 313 312 310 309 305 302 304 304 292 287 285 286 289 289 293 297 300 289 298 295 295 294 292 298 297 291 288 295 295 292 293 293 297 305 296 290 289 288 291 297 299 299 299 299 300 303 307 308 309 310 311 311 309 309 309 309 309 308 309 309 309 309 309 311 310 310 310 311 310 311 313 313 313
309 309 302 301 297 293 292 295 300 304 312 310 311 307 305 305 296 298 299 295 300 300 295 293 286 288 294 291 286 299 299 294 299 294 295 300 295 292 299 294 295 296 286 290 293 301 298 296 293 292 292 296 298 299 300 301 303 305 307 308 309 309 309 312 313 309 307 306 306 308 310 309 308 309 309 309 311 311 311 311 312 311 312 313 312 313 314
306 303 299 298 295 293 293 297 304 310 308 309 308 301 297 299 296 292 293 295 297 290 295 290 286 290 288 287 290 300 297 294 292 295 289 299 294 290 297 289 297 295 286 289 294 302 292 292 293 292 290 295 297 299 306 309 309 309 310 311 311 311 311 313 313 310 308 307 308 310 309 308 308 309 311 312 313 314 314 314 315 314 314 313 313 314 314
299 299 295 294 293 296 304 306 309 306 305 299 300 298 293 298 293 288 297 290 288 292 292 285 293 292 292 289 289 291 303 296 289 289 291 295 303 291 295 293 294 292 284 285 290 301 290 284 289 288 287 295 297 304 307 308 307 309 311 311 312 312 313 313 313 314 313 313 314 314 314 315 315 314 314 314 314 314 315 316 317 317 317 317 318 315 314
301 300 297 295 299 302 304 306 303 300 298 295 296 297 294 288 295 297 295 290 289 290 297 295 298 294 297 296 295 290 303 305 303 303 298 290 302 299 292 286 296 288 285 284 294 294 289 286 286 285 289 296 299 305 307 308 308 309 310 312 312 312 313 313 314 314 314 313 313 314 316 316 316 316 316 316 316 315 316 316 316 316 316 316 315 315 317
303 303 304 306 306 305 304 302 299 295 295 298 292 287 289 292 296 294 296 288 290 297 298 297 293 296 297 298 296 299 300 306 304 302 295 287 298 293 287 289 290 285 284 290 294 288 286 284 285 287 296 301 304 306 306 306 307 308 309 310 312 312 312 312 312 313 314 313 313 314 315 316 316 316 316 316 316 316 317 317 317 317 317 318 319 319 319
307 306 305 302 301 297 300 290 296 296 287 288 288 287 292 288 290 290 294 299 304 300 300 307 304 306 308 310 302 305 302 306 300 298 293 289 298 295 287 285 286 284 289 298 292 286 285 285 285 292 300 302 305 305 306 307 308 309 309 311 312 312 313 312 312 311 313 313 313 313 314 314 315 316 318 318 317 317 318 318 318 317 317 318 318 318 318
304 305 301 297 293 295 299 289 297 297 291 288 287 286 289 288 292 296 293 296 300 299 302 299 300 300 297 305 302 301 303 303 305 301 296 298 294 288 287 285 286 295 300 289 287 285 285 291 295 298 301 304 305 306 306 307 308 308 309 310 311 312 312 312 313 312 312 313 314 314 314 314 314 315 316 316 317 316 316 317 319 319 319 318 317 317 318
297 292 290 287 288 293 293 289 294 289 287 290 292 291 292 289 292 295 294 301 302 299 303 303 303 302 300 304 305 304 304 299 306 299 294 298 292 294 291 289 297 296 288 284 286 286 288 292 299 301 302 303 305 306 307 307 308 308 308 309 310 311 311 310 311 311 311 311 312 313 313 314 314 314 314 315 316 316 315 315 317 318 317 317 317 317 317
293 291 289 288 290 291 289 288 290 288 293 296 294 295 294 296 296 296 301 304 300 301 300 301 302 303 300 303 298 297 301 302 298 298 299 297 291 289 297 301 297 288 287 286 286 287 290 295 299 301 303 304 305 306 307 307 308 309 308 307 309 309 309 309 309 310 310 310 311 311 312 313 313 312 312 313 314 315 316 316 317 317 316 316 315 316 317
291 294 287 289 288 290 294 289 291 293 295 295 296 298 297 298 300 300 302 302 301 303 303 303 303 301 298 298 299 299 300 300 295 296 298 291 291 294 299 292 285 285 285 286 287 291 294 297 301 303 304 305 305 305 306 306 307 306 306 307 308 307 308 308 308 308 309 310 309 309 309 310 310 311 311 310 311 312 313 313 313 313 312 311 311 312 312
291 291 289 287 285 288 290 293 294 294 296 296 297 299 299 300 298 299 302 303 303 303 301 301 299 299 297 299 300 295 296 297 294 292 297 294 296 290 287 289 286 290 293 290 291 296 297 300 302 303 305 306 305 304 304 304 304 305 305 305 306 307 307 308 308 308 309 308 308 307 308 309 309 309 309 308 308 309 310 310 311 311 310 310 310 310 309
293 288 290 288 291 290 291 296 293 292 296 297 298 299 299 298 298 300 302 304 303 302 301 300 300 297 293 296 294 295 292 296 290 288 294 292 288 285 286 285 286 286 294 297 296 299 300 303 305 305 306 306 305 304 304 304 303 302 302 302 303 304 305 305 306 307 308 307 307 307 307 308 307 307 307 308 307 307 308 309 309 309 310 310 309 309 309
293 293 292 287 290 293 296 296 293 293 296 297 297 297 298 298 298 301 304 302 302 303 302 301 301 295 293 294 289 289 289 293 293 291 291 289 290 290 289 286 288 289 293 298 299 301 304 306 306 305 304 304 305 303 302 302 304 303 302 302 303 303 303 303 304 304 305 306 307 307 307 307 306 306 306 306 307 308 308 308 308 307 307 308 308 308 308
291 290 291 294 292 291 294 292 292 291 293 294 295 296 297 296 297 299 304 302 303 301 299 295 293 291 289 291 289 287 289 297 294 291 290 290 295 290 286 286 291 295 297 301 302 304 305 306 305 304 304 303 302 302 302 302 301 301 301 301 302 302 302 302 302 303 303 304 305 309 305 306 306 307 307 308 307 306 306 307 307 306 306 307 307 306 306
289 290 293 297 296 297 295 295 294 293 293 296 296 298 299 297 299 301 304 303 301 297 295 297 294 291 289 289 292 295 297 293 289 292 289 293 297 292 291 293 295 298 299 299 300 303 305 305 306 306 303 304 304 302 301 302 301 301 301 301 301 301 301 301 301 302 302 302 303 303 304 305 306 306 307 307 306 306 304 304 306 306 305 305 305 305 305
Wind_Speed
23 22 22 21 21 19 17 15 14 11 12 6 6 5 5 5 6 14 17 12 7 4 4 5 6 5 5 10 6 9 8 6 6 5 4 5 3 3 1 2 3 2 1 2 2 3 1 4 2 4 5 4 5 8 12 11 9 4 6 4 1 5 2 2 6 2 5 4 4 6 5 3 8 8 7 10 12 12 11 9 5 6 2 4 3 8 6
21 22 21 21 19 17 16 13 12 9 8 4 4 3 5 6 8 6 6 7 5 4 8 7 8 7 10 9 8 7 6 10 11 5 7 3 4 2 2 3 2 2 2 1 2 4 1 4 5 4 3 2 3 12 12 11 7 8 4 4 8 2 2 1 0 1 3 6 5 5 3 2 3 6 9 9 9 12 8 2 3 4 9 9 7 16 4
21 21 21 18 17 16 14 11 10 8 7 3 2 4 5 6 3 4 6 5 6 7 5 7 5 8 10 9 8 10 7 8 11 11 7 7 4 3 2 2 4 3 2 2 3 4 4 1 2 4 1 2 1 9 11 8 5 7 9 10 3 1 2 1 4 12 10 10 11 8 7 5 2 3 7 12 15 13 6 14 4 10 5 8 7 8 5
21 21 20 18 17 16 13 10 9 8 6 3 1 2 4 4 7 4 4 3 5 4 5 7 7 6 8 10 6 7 7 7 8 14 6 12 11 4 4 5 3 9 6 4 3 3 5 3 2 4 3 4 2 5 9 6 5 10 13 14 4 0 1 1 1 1 3 2 3 3 2 4 3 3 5 9 11 14 15 8 8 14 5 10 9 6 3
20 21 20 18 16 14 12 9 8 8 4 1 1 2 1 3 2 6 8 7 2 5 3 7 7 6 8 3 3 7 7 9 5 9 4 11 11 7 4 8 8 6 7 3 2 2 7 3 2 4 4 3 5 6 6 5 9 14 7 13 3 3 3 2 1 1 1 3 7 13 6 6 7 9 10 7 13 14 16 15 16 8 7 15 9 8 8
20 20 20 18 14 12 10 9 6 6 2 2 2 2 1 2 2 2 1 2 4 9 7 9 8 9 8 4 3 6 8 8 7 7 3 9 8 8 1 10 8 8 6 5 2 2 2 0 1 4 4 6 9 7 6 2 9 11 3 5 2 1 0 2 6 7 7 7 10 12 9 5 7 11 11 12 12 14 21 20 7 12 14 19 8 6 6
20 19 20 19 15 13 10 9 7 3 1 3 1 1 2 2 2 3 2 0 3 3 9 11 8 10 8 4 4 8 8 9 6 3 7 7 5 7 4 9 12 10 7 3 2 2 3 3 2 2 3 5 5 5 4 2 8 8 6 5 1 0 3 2 3 8 8 9 9 9 8 4 6 10 12 14 14 18 19 15 13 14 11 7 9 9 13
20 19 19 18 15 13 11 9 7 1 3 2 1 3 1 3 0 2 2 4 6 6 4 4 6 7 7 4 3 5 7 8 12 6 2 5 6 5 6 9 10 10 7 2 2 3 1 3 3 1 4 6 1 2 2 3 4 8 5 3 4 3 3 8 5 5 7 11 7 5 7 9 11 10 10 12 15 16 16 12 12 9 11 10 7 5 11
20 19 18 18 16 13 10 8 6 2 4 1 2 2 3 2 1 0 5 7 4 3 2 3 5 5 4 1 5 7 7 9 9 11 7 5 3 6 9 10 10 5 6 6 6 4 3 3 3 4 4 4 2 2 3 3 7 5 3 1 2 2 4 2 2 6 7 5 5 12 14 15 13 12 12 11 10 13 10 10 7 8 10 7 12 14 10
19 19 18 18 16 14 11 10 5 4 4 2 2 3 0 1 0 1 2 4 3 5 3 3 3 3 1 3 6 5 8 9 10 8 2 3 1 3 7 10 7 6 4 7 6 4 5 6 8 6 7 6 7 7 8 4 4 1 2 2 3 2 1 2 2 4 4 10 5 11 14 11 10 16 12 9 8 9 6 7 8 15 12 12 16 15 6
19 18 17 17 15 14 14 11 9 3 3 2 2 3 1 2 3 2 2 5 2 4 2 3 3 2 5 6 8 7 7 8 8 3 4 6 12 11 9 8 6 7 5 4 2 5 8 7 9 8 8 9 10 9 8 10 9 8 4 1 3 2 2 2 1 1 3 13 11 8 4 6 12 2 1 2 9 11 12 14 11 8 12 15 10 11 10
19 18 17 16 15 14 13 14 8 4 7 3 2 3 3 2 3 3 3 4 6 2 1 3 2 5 8 9 6 9 9 9 9 4 10 10 12 12 9 7 3 6 4 3 8 8 9 7 6 7 9 10 11 11 12 13 11 10 9 8 6 3 0 1 2 1 3 9 7 3 7 14 3 15 9 6 8 7 15 17 16 13 13 13 9 7 7
18 18 17 16 15 14 12 12 11 5 7 4 3 5 2 2 2 3 3 4 6 4 6 5 3 7 7 9 9 8 7 8 9 11 9 10 10 8 6 6 6 5 7 12 10 9 4 6 5 6 8 7 8 10 13 14 15 13 11 12 8 6 7 3 2 4 1 3 1 4 10 4 11 6 5 9 4 10 9 10 17 17 13 12 13 10 9
19 18 18 17 16 15 13 11 10 8 4 5 4 4 5 4 3 3 3 3 6 4 3 8 7 8 5 5 6 8 8 10 8 6 6 3 8 11 9 4 4 7 9 7 6 3 3 2 4 3 4 1 2 3 8 16 18 17 17 15 13 12 5 3 3 3 3 5 6 9 11 16 9 4 5 7 4 5 3 6 10 4 2 8 9 10 9
19 19 18 18 16 14 12 10 10 7 5 5 4 4 5 5 5 4 2 3 7 7 5 7 2 4 6 7 6 9 9 8 7 6 4 7 7 4 4 6 8 9 8 4 2 2 1 1 2 4 3 1 1 4 0 2 5 19 21 19 18 15 12 6 5 3 7 6 6 5 2 3 4 3 1 2 1 3 4 5 10 5 8 6 9 11 11
19 18 18 18 17 15 13 9 9 7 6 2 4 4 5 5 5 5 5 5 3 6 4 6 5 5 6 7 8 9 7 6 5 8 9 2 3 5 5 7 8 8 6 0 0 0 1 2 4 2 3 3 4 2 4 3 3 4 16 17 15 14 13 9 12 6 5 5 6 4 3 7 4 3 5 4 3 2 2 3 9 3 9 10 4 8 12
20 19 18 18 17 16 14 13 10 6 5 5 3 3 5 3 4 3 3 4 5 7 2 5 4 6 6 6 3 3 2 3 5 7 7 4 4 7 9 5 5 4 2 1 1 0 1 2 2 2 3 0 2 5 5 2 3 4 1 10 14 14 12 9 8 9 8 8 8 9 3 6 1 4 6 9 2 1 4 3 8 3 15 13 10 10 11
20 20 20 19 18 17 15 13 12 9 4 4 5 3 4 2 5 2 3 4 6 7 5 8 9 5 5 4 4 3 2 4 4 4 6 8 7 5 4 4 6 3 1 1 0 1 3 2 2 5 5 3 1 2 4 4 2 2 2 2 6 10 9 11 12 10 10 12 7 5 5 4 2 5 7 7 5 3 7 12 3 12 16 14 11 14 12
25 23 22 21 19 18 16 15 12 12 9 4 4 4 6 5 4 4 4 5 4 7 2 2 2 6 3 1 5 4 5 6 7 6 6 7 2 2 5 5 2 3 4 1 1 1 1 3 1 0 2 2 2 2 3 3 3 3 3 3 4 7 6 8 11 13 11 8 10 9 5 5 1 4 0 5 2 4 9 3 9 13 15 16 14 15 11
24 23 22 22 21 19 18 16 15 13 11 5 6 5 4 2 4 7 5 5 3 9 7 8 6 13 6 7 8 7 5 4 5 5 5 8 2 9 8 5 1 1 3 1 1 1 1 2 2 1 1 2 1 3 4 6 5 3 4 7 4 2 5 9 12 8 8 7 7 6 9 2 1 5 1 6 2 4 5 11 12 7 12 14 14 9 6
25 24 22 21 21 21 19 17 16 15 12 8 6 4 5 3 5 4 7 7 5 10 8 5 8 12 10 12 12 11 9 10 5 5 6 7 0 2 3 2 1 3 2 1 0 2 0 2 2 1 3 1 3 3 4 6 7 7 9 5 5 6 3 4 8 9 9 9 11 8 5 5 6 1 3 2 4 4 7 6 11 9 8 10 11 8 6
25 24 23 22 21 21 21 19 17 16 14 11 5 4 6 3 4 4 5 5 7 9 7 4 5 8 10 11 10 10 12 13 13 9 7 8 4 6 6 7 6 0 1 1 1 2 0 2 2 2 3 3 1 3 4 6 5 2 0 3 6 5 4 1 4 4 5 5 6 2 6 5 2 1 3 5 1 4 7 7 5 9 9 10 8 9 9
25 25 24 23 22 21 20 19 17 16 14 14 7 5 7 2 2 2 2 6 5 6 6 8 8 11 11 14 15 15 14 12 12 9 9 8 8 6 8 8 7 3 3 2 4 3 3 2 5 2 3 2 3 4 3 6 5 2 5 2 7 14 12 8 7 9 10 13 5 7 6 4 5 3 4 7 5 3 6 6 6 6 7 8 8 10 7
26 25 24 23 21 21 20 20 19 17 15 14 9 4 5 4 3 2 3 4 5 8 8 7 3 6 7 10 7 7 10 11 13 14 10 8 8 6 5 6 3 2 3 5 4 4 1 0 2 1 3 2 2 3 5 5 5 6 7 7 2 6 9 4 5 11 11 7 5 4 6 5 5 7 6 9 7 3 5 6 5 6 8 10 9 9 6
26 24 24 23 22 21 21 20 18 17 14 14 12 6 5 4 3 4 4 6 2 2 8 6 9 13 13 11 10 6 8 9 9 11 10 11 13 11 9 5 9 8 6 3 2 3 1 5 3 2 6 2 2 6 4 4 6 2 4 8 6 7 6 13 7 11 10 8 1 5 4 3 3 3 5 8 7 6 7 5 6 6 8 7 9 9 8
24 24 24 23 22 20 19 18 17 16 14 13 11 5 5 5 4 5 4 4 3 3 6 7 7 1 1 5 7 6 4 7 10 12 13 14 15 15 12 3 3 1 2 1 1 2 4 3 4 4 5 4 3 4 4 6 6 5 9 14 9 11 11 7 6 6 11 16 8 5 4 1 4 6 8 9 6 1 6 7 10 10 8 10 9 9 8
25 25 24 23 22 20 19 17 14 13 11 10 7 5 6 4 7 8 6 3 3 6 7 10 8 7 4 9 11 6 6 7 8 9 10 12 13 12 10 7 7 5 6 7 4 6 3 5 4 8 6 5 4 4 3 5 5 7 7 13 10 7 12 10 7 7 9 10 8 7 8 4 1 6 8 9 5 4 3 7 8 10 7 7 10 8 8
28 26 23 23 23 21 19 17 14 10 8 9 7 6 6 7 7 9 8 8 9 7 3 6 7 6 10 17 11 7 8 6 8 9 9 10 12 11 11 11 9 7 7 5 5 5 5 6 9 4 3 2 3 6 3 5 4 7 10 12 6 7 10 7 8 6 10 8 8 7 1 4 3 7 6 10 6 4 4 8 5 6 9 8 8 9 6
25 24 24 23 22 20 19 16 13 10 7 5 3 4 5 8 9 10 11 9 9 7 6 9 10 8 6 8 5 7 6 6 7 8 8 9 10 10 11 11 10 10 7 5 6 4 4 6 3 4 3 3 2 5 1 5 4 9 13 10 7 8 9 12 12 13 17 20 20 11 4 6 6 6 6 7 6 7 8 7 6 5 9 11 10 9 6
29 26 24 21 18 16 15 14 11 7 5 4 2 1 3 5 3 6 9 10 8 3 5 6 7 4 2 3 9 7 5 3 6 7 9 8 8 9 10 10 9 9 7 7 5 6 7 4 3 4 5 7 2 2 4 4 6 13 11 9 9 9 8 9 10 13 14 13 9 9 3 3 6 8 7 5 3 7 9 8 8 8 10 11 8 8 12
28 26 24 20 18 16 14 12 9 6 8 4 3 2 1 3 2 4 8 10 9 6 3 4 8 6 7 4 4 10 10 6 4 6 9 10 9 10 10 9 8 9 8 7 6 9 2 4 3 3 5 10 6 4 5 4 6 7 9 7 9 10 11 13 12 14 16 13 10 8 1 3 4 9 8 6 4 8 10 5 3 5 8 8 8 10 10
27 26 24 22 18 16 14 10 9 9 7 7 8 6 4 3 2 6 9 9 9 5 5 4 5 2 4 4 3 3 4 8 4 2 2 4 5 7 7 11 8 9 7 6 6 2 7 8 7 7 5 7 7 4 4 6 10 14 13 10 10 11 12 14 14 12 9 7 8 4 2 3 1 4 6 5 5 6 10 5 1 3 8 8 7 8 8
27 24 23 22 18 16 14 8 9 9 7 6 7 10 8 6 3 10 9 8 6 3 1 2 4 2 3 5 6 5 4 1 1 0 3 3 4 4 5 6 5 3 8 4 3 5 4 5 4 7 5 7 5 4 6 11 14 14 13 13 11 11 10 10 10 11 9 7 8 5 7 7 3 7 9 8 7 7 7 6 2 3 9 11 9 7 9
26 25 23 21 17 13 8 5 7 9 4 2 4 8 10 14 9 10 10 6 2 1 1 2 3 4 6 4 5 4 2 1 3 0 2 2 2 3 4 4 6 4 3 7 3 1 2 1 4 3 2 4 4 5 9 11 10 11 12 10 8 8 7 9 8 8 7 7 8 3 1 3 6 7 9 10 8 4 3 4 5 8 9 10 9 9 7
27 25 22 16 9 3 4 6 5 4 3 3 4 6 4 11 16 15 13 5 3 3 3 3 2 5 4 2 3 5 1 2 3 1 1 3 0 3 1 2 2 3 3 1 1 4 3 5 4 1 5 2 4 6 8 10 9 8 7 12 10 9 7 7 3 3 3 3 4 5 7 5 8 9 8 9 8 5 7 6 5 7 9 9 9 9 6
28 26 19 8 7 7 5 4 2 3 2 3 5 4 9 11 12 9 10 8 3 3 3 3 3 4 2 4 4 2 2 4 2 1 2 1 4 1 1 2 1 4 2 4 4 2 3 2 2 4 1 2 7 6 8 7 11 13 12 12 11 7 7 9 9 4 5 5 3 6 7 5 6 8 7 6 6 6 5 6 5 7 10 9 8 6 5
26 21 10 5 4 1 1 2 2 3 4 4 3 2 5 7 3 4 3 4 2 1 2 2 4 5 4 3 2 3 2 3 1 1 1 0 2 1 1 1 2 1 1 2 2 3 4 1 1 4 3 7 9 6 7 9 12 14 14 11 9 8 8 7 6 6 8 8 7 5 5 9 6 5 7 7 6 6 7 6 4 8 10 10 7 7 5
22 12 1 1 0 2 1 1 2 2 7 11 8 2 2 1 2 2 2 2 2 3 3 2 7 1 0 3 6 2 1 3 2 2 2 0 2 2 0 0 2 1 3 1 3 0 0 1 3 3 6 6 10 12 12 11 10 9 8 7 7 7 7 4 6 10 12 10 9 9 6 5 7 6 8 7 6 8 6 4 5 6 7 7 6 5 5
9 2 2 1 1 0 1 2 1 11 7 2 0 1 1 1 1 2 3 2 2 4 3 4 6 4 4 6 7 2 3 3 3 2 2 1 1 2 0 3 0 0 2 2 1 2 3 1 1 2 5 5 8 11 8 5 2 2 2 4 7 7 4 4 5 3 7 9 11 12 13 12 12 9 7 7 6 6 5 5 6 6 7 7 5 4 6
3 5 3 3 0 2 2 2 9 6 0 0 1 0 2 1 1 3 2 2 2 2 2 6 4 6 10 10 6 4 2 4 3 2 2 3 1 1 1 1 2 2 3 1 2 4 2 3 2 3 5 4 8 10 5 7 7 6 4 4 4 6 2 8 8 6 7 7 5 6 7 6 6 9 9 9 8 9 7 6 5 5 6 6 4 6 7
3 2 2 2 4 3 4 6 3 1 1 1 1 1 1 2 2 2 1 2 2 3 4 4 3 4 5 6 6 6 2 1 2 1 2 2 2 1 1 0 2 3 2 2 3 3 2 2 2 2 4 6 8 9 8 8 8 8 7 8 8 7 11 14 11 10 9 7 6 6 7 9 7 7 7 9 8 8 7 7 7 6 7 8 8 7 6
3 2 4 5 6 6 5 1 1 1 1 1 1 3 1 3 1 1 1 0 3 1 3 4 4 3 4 8 6 3 3 3 2 2 2 2 1 1 2 1 2 1 2 0 1 1 1 2 3 4 4 5 7 6 5 5 9 12 11 9 10 12 14 14 13 13 10 9 8 8 7 7 8 7 6 7 7 7 8 8 9 8 8 7 7 8 9
13 8 2 2 2 2 1 2 3 2 2 3 3 3 2 3 2 4 4 0 1 2 2 2 3 3 2 4 3 1 0 2 2 2 2 1 1 2 1 1 0 2 2 0 1 1 2 2 4 6 4 4 4 7 10 9 9 10 11 11 12 12 13 12 12 12 10 11 10 9 9 10 10 8 7 7 8 9 8 8 9 8 8 9 9 8 8
1 1 0 1 1 2 2 3 2 2 1 1 2 4 5 6 8 5 6 6 6 5 4 8 9 10 8 2 2 2 3 2 1 2 2 2 1 1 1 2 1 2 1 2 2 3 3 3 6 7 10 11 12 12 12 10 9 9 12 14 14 13 11 11 11 10 11 10 10 9 9 10 11 11 11 9 9 10 9 9 8 9 10 10 10 8 6
1 3 3 3 3 3 2 2 2 3 4 5 3 3 5 10 10 9 8 6 3 8 11 7 7 7 6 4 1 1 0 1 1 1 3 1 1 2 1 3 2 2 3 3 2 1 1 10 8 8 11 12 13 12 11 10 9 7 8 9 10 11 12 11 12 11 11 10 10 9 9 9 10 10 10 10 9 9 9 9 8 11 11 11 11 10 8
4 1 2 4 7 4 2 1 2 4 3 3 4 6 8 9 8 8 6 2 5 8 9 10 8 5 5 4 2 2 2 1 1 1 1 0 1 4 2 0 1 3 3 2 6 13 11 8 10 13 11 11 10 10 10 11 11 10 10 12 11 13 13 13 13 13 12 11 10 10 10 9 10 11 11 11 10 10 10 9 9 10 11 12 11 10 10
2 2 2 1 2 2 1 3 5 2 4 6 7 7 7 9 8 8 7 4 6 6 7 5 2 1 2 6 4 3 2 2 2 1 1 3 3 2 1 3 4 3 4 7 7 7 10 12 13 13 11 11 11 11 11 11 10 12 13 12 12 12 11 12 13 11 11 12 12 12 10 10 10 11 12 12 10 8 10 11 12 12 12 12 10 10 11
1 1 1 3 2 1 7 3 2 5 4 4 7 6 6 5 4 9 10 6 5 5 6 6 4 5 3 2 2 1 3 3 2 3 2 2 1 2 3 3 4 4 4 7 12 10 11 11 10 11 10 11 11 11 12 12 13 14 14 13 13 13 13 12 12 12 11 12 12 12 10 10 10 11 12 11 11 12 11 10 10 10 11 11 12 12 12
2 2 2 1 0 0 2 7 5 8 11 9 7 8 10 12 10 9 10 7 7 7 5 2 4 1 3 4 3 4 6 5 5 3 3 4 3 5 4 5 5 7 8 8 10 11 9 8 8 9 9 10 11 11 11 11 12 13 14 14 13 13 13 14 14 13 13 12 11 10 10 11 11 12 13 14 14 12 11 11 12 11 11 11 12 13 13
4 3 3 3 4 4 6 6 4 10 11 11 12 12 11 11 12 11 9 9 9 6 5 1 1 3 1 2 3 2 2 4 4 2 4 8 7 5 4 7 7 6 7 7 7 8 9 9 9 11 12 13 12 12 12 13 13 13 12 13 13 13 13 14 15 15 14 13 14 13 13 12 12 12 12 12 11 12 13 13 12 12 12 12 12 13 13
1 3 0 2 4 3 5 9 9 8 11 11 10 10 9 10 10 11 11 7 8 5 8 7 4 3 3 4 3 4 3 2 3 7 5 6 4 4 4 6 7 8 8 7 7 7 8 8 8 9 11 12 12 12 12 12 12 12 12 12 12 13 13 15 15 14 14 14 15 15 14 11 9 9 9 11 13 14 14 13 12 12 13 12 12 13 13
3 4 5 6 3 5 5 2 1 3 4 6 8 9 8 11 11 9 10 6 8 14 10 5 3 3 3 7 4 1 2 2 3 4 7 5 4 5 7 9 9 8 8 8 8 8 8 8 9 9 9 9 9 10 12 13 13 13 14 14 14 14 15 14 14 14 14 14 14 12 11 11 11 12 14 15 15 14 13 10 10 11 12 11 10 11 12
Wind_Direction
331 331 332 332 330 327 323 326 329 336 346 349 343 329 329 334 270 281 289 299 338 22 66 24 18 7 343 327 323 328 326 325 343 338 352 345 331 327 352 12 37 10 32 329 28 1 44 10 22 83 89 82 39 347 349 345 352 0 20 342 9 304 162 248 270 342 293 297 320 323 331 230 221 223 202 168 195 195 214 219 180 177 231 221 257 243 261
331 333 333 333 329 325 323 325 329 335 352 334 324 332 328 311 298 313 295 315 333 51 39 3 353 352 340 351 328 342 335 350 352 346 336 342 347 342 312 341 83 289 347 357 29 357 109 36 53 56 33 123 1 12 347 355 18 18 5 351 327 8 311 142 287 320 221 270 336 316 344 141 215 201 213 200 194 201 207 114 99 202 202 183 161 243 245
335 335 336 335 334 332 331 328 325 334 332 6 21 335 316 294 246 229 294 335 0 43 39 28 354 354 338 334 337 350 353 346 332 328 324 7 354 322 312 302 318 34 332 40 20 28 45 342 61 35 61 46 45 8 346 339 9 1 1 358 302 195 261 53 174 208 206 206 211 219 227 246 265 228 213 208 200 195 170 225 157 220 219 178 206 249 250
335 336 337 338 340 339 336 331 325 328 333 65 52 303 321 349 330 311 322 348 2 57 51 48 4 344 350 339 314 341 328 341 340 347 332 26 346 331 284 335 24 28 11 36 22 21 22 63 329 12 350 4 45 1 319 341 340 355 6 359 346 266 333 134 185 224 252 354 274 215 0 316 263 321 206 219 214 203 207 209 205 219 176 208 227 195 239
335 337 339 341 342 343 341 335 329 329 339 31 120 304 246 313 311 325 343 328 67 12 28 17 7 341 337 314 302 328 335 337 349 11 329 359 341 326 45 35 32 0 18 5 38 17 4 335 15 30 18 343 345 317 307 334 356 357 21 355 357 44 10 285 26 297 230 304 302 290 282 261 267 273 272 237 204 207 212 206 225 122 143 242 219 201 201
335 337 339 341 344 344 343 337 329 337 349 61 85 344 285 21 289 327 358 297 312 348 342 352 331 316 332 260 300 305 334 353 358 344 340 340 338 353 285 36 34 13 0 331 19 0 339 18 91 354 20 357 338 350 322 74 1 6 28 352 70 140 240 289 22 324 322 289 280 284 291 231 245 256 254 253 237 209 214 220 195 162 210 233 226 178 189
336 337 339 342 345 342 341 336 327 318 35 129 87 330 271 216 275 277 355 349 325 306 286 313 312 314 328 291 323 337 350 331 343 359 315 338 347 22 345 355 0 347 341 9 307 6 42 340 28 27 338 4 345 344 336 334 17 7 358 15 324 75 258 248 9 318 313 296 283 282 271 283 275 257 257 254 246 237 227 220 210 202 228 234 231 179 200
336 338 340 342 341 343 339 336 330 282 122 111 239 207 259 291 49 308 338 263 284 277 299 296 307 309 326 338 300 329 338 326 334 346 47 319 310 5 10 340 349 339 332 4 332 279 313 322 332 279 39 335 346 262 228 283 356 8 355 341 306 60 292 356 349 339 312 300 299 284 314 299 289 282 267 258 255 251 243 235 227 212 241 233 245 180 226
337 339 340 340 342 340 341 335 333 148 125 285 217 266 193 260 235 272 305 305 274 278 249 281 308 310 313 6 326 354 335 328 330 310 290 231 266 7 335 334 327 332 322 310 284 290 303 288 246 292 286 261 271 26 284 22 329 347 323 332 309 51 261 33 39 2 311 294 334 321 319 311 283 264 258 258 249 251 247 236 222 206 218 211 237 243 232
338 339 342 342 345 342 344 341 326 188 180 236 253 258 55 296 257 140 269 286 307 311 270 278 303 293 289 341 328 334 314 311 322 319 251 213 225 334 323 319 313 292 291 287 281 325 322 299 291 282 265 248 255 246 254 273 243 276 253 299 306 213 196 3 345 353 249 282 306 326 313 321 303 262 263 251 236 244 257 251 212 214 207 214 220 231 209
337 339 341 344 348 346 337 342 342 175 153 226 259 256 259 236 293 302 208 280 234 216 277 239 202 274 329 323 313 310 297 304 302 285 295 345 318 318 313 306 310 283 285 271 358 308 288 280 275 275 262 245 241 241 245 246 240 229 233 279 270 234 195 220 142 147 272 293 316 312 326 259 242 103 358 241 241 221 224 239 229 223 194 230 225 224 200
335 336 340 342 344 346 346 339 338 193 181 231 228 262 257 273 271 235 267 280 292 354 320 270 240 286 294 299 300 298 303 301 304 312 299 299 296 305 305 299 305 309 248 302 320 313 294 263 256 257 250 251 245 235 231 238 236 228 217 212 233 259 219 203 168 129 281 296 319 343 234 241 356 332 357 338 292 264 225 228 228 222 221 237 248 240 215
333 332 336 338 340 341 343 340 338 323 211 229 230 263 269 210 242 246 262 260 278 303 290 276 267 269 280 289 293 284 284 296 298 298 286 282 290 297 299 299 288 268 326 319 318 324 335 287 288 256 258 248 240 234 229 227 230 226 221 212 207 211 219 211 213 176 266 329 262 227 234 262 320 313 341 337 62 24 6 280 243 228 213 206 227 231 228
328 329 330 333 334 337 335 337 332 335 269 202 243 246 262 264 244 250 233 268 276 257 285 294 274 268 279 278 286 301 309 299 291 276 278 267 293 293 293 277 274 307 304 307 311 295 328 16 331 352 313 317 306 278 223 216 217 215 216 212 204 210 205 189 240 182 177 212 239 250 309 319 333 360 6 33 31 345 6 277 278 289 236 188 212 230 247
323 324 326 326 328 330 328 326 327 325 320 201 232 252 263 249 242 243 267 235 277 287 281 275 261 296 301 300 313 310 307 297 312 291 256 276 269 253 264 301 307 298 298 323 332 357 228 310 3 350 313 50 36 262 202 232 223 220 214 206 197 196 194 190 189 230 170 223 277 307 338 257 282 185 68 207 191 229 186 154 287 278 252 214 202 212 224
318 319 319 321 322 324 324 315 315 317 312 220 206 250 260 259 257 257 242 252 312 290 242 245 275 293 304 296 294 286 283 301 295 301 303 253 257 295 306 299 293 290 296 111 73 341 253 147 234 213 242 202 241 0 305 283 308 214 213 214 199 205 213 208 189 187 171 199 228 218 203 240 201 260 274 272 256 192 155 105 268 298 357 352 286 234 216
313 313 313 313 317 317 317 317 310 304 303 176 215 219 263 226 246 242 258 239 215 239 280 287 283 291 301 293 299 268 215 260 320 316 313 329 328 311 299 303 288 283 294 92 265 25 330 185 249 238 264 1 51 211 256 0 278 309 89 192 197 194 206 230 243 213 192 192 217 238 203 250 265 298 316 318 317 135 125 212 259 320 348 333 333 287 255
308 308 309 309 309 311 311 312 310 307 315 251 199 232 256 202 213 230 247 248 266 270 238 248 250 253 232 210 247 238 253 273 259 269 273 294 302 299 311 342 334 316 325 77 274 79 246 232 197 225 242 214 177 354 268 223 242 256 18 138 182 198 208 213 227 225 208 203 243 284 280 279 276 316 316 321 346 99 165 218 249 326 321 314 307 292 269
308 306 304 305 304 304 305 305 303 300 299 254 198 245 250 230 217 207 246 265 242 258 177 305 178 231 230 236 238 251 239 272 281 285 290 303 275 322 344 297 250 285 2 42 345 258 254 246 211 346 257 340 39 216 282 317 256 270 345 319 204 210 209 213 215 224 220 207 216 234 257 236 246 278 348 339 88 204 222 304 317 302 309 306 295 284 274
308 304 301 298 298 298 299 300 297 295 293 237 170 242 246 213 193 196 216 254 244 267 263 246 240 256 243 239 254 257 261 247 212 233 260 269 15 355 338 354 356 263 323 336 308 236 8 285 276 280 337 302 214 267 324 254 259 269 279 265 278 260 210 205 208 208 223 212 213 212 231 262 205 255 60 34 84 256 277 306 308 317 303 307 306 289 318
307 304 300 296 293 291 291 293 294 292 289 269 196 235 263 222 216 201 212 236 264 287 282 226 236 245 249 242 238 239 229 240 205 218 230 249 230 2 275 256 314 8 315 36 328 276 266 288 349 238 232 323 292 1 283 290 294 258 226 252 237 184 248 222 223 199 206 199 211 213 186 178 247 206 131 196 183 257 296 308 299 324 320 318 312 311 338
308 305 301 297 293 289 287 283 283 287 281 278 186 212 245 215 189 201 208 206 246 248 268 301 293 271 258 251 249 235 233 238 238 229 260 266 220 230 263 295 282 268 283 335 352 339 31 257 276 334 301 276 248 233 277 319 277 308 290 212 270 170 232 321 281 298 256 239 211 195 124 141 223 146 142 148 203 295 295 299 298 317 326 317 311 319 330
311 309 304 299 295 291 288 282 275 272 277 273 257 217 244 239 238 189 167 252 242 259 265 274 263 264 265 256 245 242 241 239 249 243 224 239 259 226 235 240 254 197 233 212 206 232 268 286 259 272 296 253 240 281 259 208 279 355 321 245 286 300 296 300 312 274 272 248 242 143 127 154 143 157 120 106 58 339 318 320 339 324 318 327 316 314 316
315 312 308 303 299 294 288 283 277 268 264 265 249 185 240 218 213 177 224 235 261 291 280 241 278 266 236 259 256 220 229 234 226 232 221 204 242 252 222 224 200 248 243 228 188 232 259 241 259 263 247 247 327 276 292 287 234 270 285 296 236 288 315 287 236 269 280 244 154 138 143 174 155 134 127 91 82 5 333 321 325 324 339 336 343 324 337
316 314 310 306 302 297 293 288 281 276 262 256 261 231 225 225 182 188 228 271 254 288 292 300 254 254 260 258 274 256 219 217 207 216 208 199 213 223 231 148 181 201 231 238 180 247 189 267 268 229 271 241 127 266 190 247 286 75 309 275 329 294 33 334 291 293 275 281 287 131 142 175 186 149 90 64 48 12 328 322 330 351 346 348 351 341 10
313 313 311 307 304 301 297 293 286 275 265 256 248 213 203 223 159 189 213 229 266 268 276 283 279 123 5 309 261 228 207 201 208 208 205 204 207 217 235 255 272 251 281 261 119 220 245 228 241 249 261 277 148 239 230 185 257 297 265 270 242 277 319 270 285 290 298 290 258 177 156 104 91 83 83 95 89 46 308 4 357 346 358 0 356 5 5
311 309 307 305 305 304 300 298 293 281 263 245 236 219 215 209 173 177 189 191 254 273 237 253 279 291 274 271 274 275 236 222 222 219 216 209 210 214 222 229 239 249 262 274 255 253 230 234 230 253 217 246 172 220 247 276 245 260 256 261 257 249 248 244 257 272 264 252 234 189 172 218 200 101 100 85 86 81 15 29 22 327 327 33 356 354 21
314 313 308 308 308 307 305 298 294 284 255 234 234 221 210 218 203 196 196 182 182 227 287 278 285 292 320 284 275 260 255 224 213 216 216 216 208 205 209 218 220 230 225 223 260 219 220 234 242 227 229 215 214 258 199 256 267 254 241 256 232 228 255 255 257 245 265 279 301 284 239 106 159 139 123 114 109 95 64 69 49 343 327 20 26 324 12
311 312 311 310 307 301 299 297 291 280 255 211 185 232 253 237 231 209 207 196 192 234 253 275 286 285 275 286 301 279 257 226 221 211 212 210 204 204 207 208 210 218 220 212 233 238 230 238 226 224 223 147 161 263 106 238 219 249 251 253 239 237 245 251 251 268 274 280 277 270 258 171 168 136 119 110 129 130 93 56 39 22 360 5 18 328 298
314 310 310 306 301 297 289 281 277 264 196 136 130 248 298 284 210 206 199 192 187 197 245 264 276 274 289 277 284 276 279 226 221 218 214 208 201 200 203 202 214 207 204 208 181 231 225 242 227 229 209 130 189 272 244 237 245 257 262 257 256 265 260 270 275 262 259 262 299 302 266 134 119 120 107 96 117 103 74 40 14 16 26 15 6 345 323
310 308 309 310 307 301 291 278 265 219 156 143 127 216 247 269 261 181 183 184 173 180 225 238 254 314 296 235 244 270 269 264 227 215 217 213 206 200 199 194 210 191 205 214 214 237 183 238 205 227 168 177 170 233 238 249 267 278 262 253 269 276 273 266 261 254 247 256 277 287 329 111 131 97 76 84 79 98 98 78 8 11 48 30 5 11 1
310 310 310 311 312 305 295 280 235 200 174 166 181 180 197 198 225 144 166 162 148 188 221 269 291 252 268 278 243 231 244 250 251 235 230 177 202 186 187 187 203 189 197 198 214 236 227 234 239 240 227 196 199 243 230 239 255 258 271 275 266 257 251 258 259 261 269 260 254 162 93 166 281 108 141 124 93 75 89 104 325 43 58 58 20 24 19
310 309 309 312 316 308 294 264 215 197 204 214 276 305 280 253 169 150 154 145 158 204 191 232 247 303 265 272 294 266 210 351 327 51 280 183 199 150 183 199 202 179 200 199 194 220 216 201 197 242 235 134 193 239 241 244 247 261 275 275 274 274 270 265 270 270 258 244 234 223 188 176 143 102 111 106 100 104 108 109 110 62 67 56 40 19 27
310 310 313 316 318 312 306 236 184 179 154 159 229 229 241 233 184 163 150 160 185 214 181 232 260 244 264 324 292 294 113 285 272 146 296 280 182 134 188 165 186 185 190 195 257 313 309 243 215 232 107 208 228 258 262 259 259 268 270 273 283 277 263 271 257 248 241 229 209 230 107 106 118 111 102 98 95 76 88 113 101 84 77 68 60 36 9
312 314 316 321 320 331 106 118 128 171 195 220 246 255 236 217 201 177 163 151 154 226 198 227 246 280 295 282 257 277 342 26 312 225 180 278 299 190 195 124 136 179 286 80 198 203 209 225 163 169 248 182 209 242 250 274 280 268 285 298 303 294 300 297 302 309 258 197 161 135 126 137 120 108 112 117 117 134 114 108 118 110 90 84 75 61 13
314 314 320 324 116 91 92 113 144 147 204 226 233 237 226 229 212 194 188 181 186 158 195 231 220 240 244 281 304 301 4 281 238 276 229 289 335 265 148 142 140 246 167 177 227 196 212 183 126 256 156 218 242 230 257 272 289 295 300 298 303 303 294 285 288 306 104 125 123 120 121 98 97 110 106 101 109 104 105 105 90 91 98 91 86 85 67
312 317 331 119 132 85 78 171 192 205 224 196 241 189 130 116 87 120 156 171 223 258 213 211 244 227 202 287 304 285 349 306 308 326 323 324 250 279 23 46 220 210 100 292 258 241 251 201 197 266 233 247 263 253 271 278 282 286 289 292 295 305 303 283 228 146 114 110 103 90 106 117 105 99 103 103 101 106 99 85 96 98 99 98 91 78 74
314 320 25 96 50 32 340 295 201 249 285 291 277 181 205 228 144 141 135 187 180 177 234 209 254 256 207 233 245 262 284 260 13 328 321 279 327 315 324 262 248 356 274 286 257 264 193 170 225 245 268 244 267 272 271 267 267 262 264 286 295 303 302 294 158 138 124 125 122 118 103 107 116 117 113 113 109 100 94 106 89 81 84 89 97 114 102
327 332 39 0 72 266 244 268 315 320 304 244 302 297 254 171 173 212 183 181 189 219 184 212 245 178 194 227 256 291 254 322 341 304 275 18 2 303 318 293 35 57 279 315 313 37 274 296 291 284 270 305 308 300 302 286 301 6 332 308 304 304 321 86 92 114 155 158 155 152 147 149 141 133 123 113 110 105 118 116 110 107 105 105 116 114 98
25 13 14 349 40 248 291 326 335 334 295 77 222 249 302 211 209 275 149 177 230 193 175 242 214 202 194 206 225 284 158 186 214 249 239 288 172 224 351 7 334 313 279 251 285 23 352 296 326 313 279 317 298 321 29 8 28 26 0 333 346 339 37 96 86 87 82 69 72 97 98 92 105 121 127 121 118 112 105 97 102 107 106 111 105 87 85
24 344 8 335 283 312 298 316 338 85 63 25 0 230 11 314 220 228 271 260 236 235 185 231 213 226 204 202 186 231 200 222 277 295 2 297 348 39 160 305 327 305 287 267 357 29 4 295 299 290 296 294 296 327 351 17 19 33 23 16 33 26 62 74 66 58 63 67 70 78 99 108 106 104 107 110 112 109 107 104 99 98 94 85 83 85 94
294 267 272 296 294 290 302 297 112 23 7 153 78 299 216 237 265 319 169 139 295 290 218 191 257 245 234 181 186 172 196 211 231 169 122 312 246 299 269 288 11 124 302 55 152 24 355 337 318 322 292 323 348 354 19 16 24 37 33 26 27 37 46 53 59 59 50 54 52 59 59 66 80 80 81 88 91 96 96 91 81 74 74 76 78 76 77
285 278 203 289 299 296 240 9 329 74 39 351 2 341 352 352 312 327 330 262 276 295 285 191 237 265 292 113 137 188 137 146 180 91 70 243 39 36 37 314 297 340 300 256 358 328 9 6 17 6 342 346 328 13 40 34 21 31 35 35 40 38 37 45 49 53 52 55 59 61 61 65 63 61 57 66 75 72 67 73 79 78 72 70 67 66 74
169 188 242 261 19 320 19 355 301 8 356 50 19 353 329 333 337 355 331 340 338 322 331 345 332 347 359 7 103 141 145 197 217 165 165 208 157 314 0 8 312 228 116 25 345 21 331 337 22 14 19 24 24 22 27 36 33 28 28 29 33 37 35 37 44 50 47 51 50 52 59 62 64 60 59 60 66 78 80 79 79 83 83 80 75 71 68
48 5 16 6 36 317 30 348 341 74 4 344 338 330 337 340 323 325 331 323 320 305 314 326 332 351 343 332 118 162 228 0 212 288 3 165 317 282 60 355 335 33 25 17 9 297 9 49 28 25 21 22 22 23 22 24 26 35 51 46 35 37 42 49 56 55 50 44 46 49 55 59 65 64 64 67 67 64 72 77 80 81 80 81 78 71 60
56 67 29 35 14 2 57 355 325 357 356 350 341 312 311 317 312 305 293 297 310 321 332 324 326 326 5 344 57 347 328 0 12 20 319 307 44 5 353 21 59 24 23 34 40 42 34 24 26 26 23 26 21 21 27 33 31 32 39 43 38 40 40 41 45 46 39 35 38 48 54 59 68 66 62 55 54 57 57 56 60 71 74 71 69 70 64
51 12 80 121 77 308 28 5 353 348 300 301 300 303 294 292 286 266 268 289 301 304 301 288 240 258 354 339 2 355 7 334 28 329 3 36 2 311 13 40 10 0 35 35 43 43 38 27 30 28 18 16 23 30 36 42 43 48 50 49 48 47 45 44 47 53 51 43 44 48 55 57 54 68 67 61 50 49 63 64 63 65 68 71 69 68 64
36 258 78 56 358 319 8 334 291 284 256 251 280 289 281 268 325 353 346 337 285 315 349 343 353 348 11 315 64 333 312 336 29 358 9 345 299 34 5 17 17 359 25 34 43 36 39 33 28 27 19 22 25 31 31 34 37 43 47 49 48 47 47 49 49 45 48 53 55 52 39 59 70 68 73 72 63 48 48 51 55 60 66 66 64 62 63
119 68 46 134 173 93 284 302 344 10 355 348 343 355 3 8 6 356 345 338 351 350 331 29 338 31 1 325 13 351 26 345 37 346 342 9 33 14 358 28 9 41 31 21 40 35 19 30 29 28 29 30 25 29 31 31 37 41 43 47 47 48 49 50 46 47 50 53 51 55 55 49 54 59 60 57 56 48 43 49 52 52 50 58 63 62 59
43 18 30 28 359 3 319 283 350 15 356 1 2 3 353 7 3 357 351 350 341 329 329 11 353 72 309 4 1 12 34 350 35 334 19 29 24 3 357 33 16 26 24 7 17 23 30 27 26 33 29 30 28 26 30 31 36 39 39 44 48 49 47 50 50 47 46 46 49 48 44 46 49 52 57 63 66 60 51 44 46 54 52 49 57 61 59
17 102 112 204 85 311 325 18 358 352 359 360 355 354 348 3 358 346 341 348 319 356 34 27 322 15 349 9 9 32 4 330 25 21 22 17 2 23 12 26 10 9 13 10 16 16 27 29 34 39 41 40 34 33 33 33 37 37 38 41 43 47 46 44 45 46 44 41 42 44 39 36 45 57 61 61 60 59 54 46 45 54 59 54 51 58 60
32 27 2 326 353 11 2 285 312 11 331 333 356 348 357 13 347 337 326 330 16 41 21 332 9 354 20 29 4 346 296 28 33 357 38 31 350 26 28 22 12 3 4 17 15 13 25 29 31 33 42 43 35 39 45 39 37 37 37 40 43 43 42 40 41 43 44 42 38 39 37 32 36 46 50 50 49 50 50 47 40 49 57 57 55 57 61